Regional Weather Roundup
Issued by NWS

Home | Current Version | Previous Version | Graphics & Text | Print | Product List | Glossary On
Versions: 1 2 3 4 5 6 7 8 9 10 11 12 13 14 15 16 17 18 19 20 21 22 23 24 25 26 27 28 29 30 31 32 33 34 35 36 37 38 39 40 41 42 43 44 45 46 47 48 49 50
000
ASUS43 KFSD 262102
RWRSD

WEATHER ROUNDUP FOR SOUTH DAKOTA
NATIONAL WEATHER SERVICE SIOUX FALLS SD
400 PM CDT WED APR 26 2017

NOTE: "FAIR" INDICATES FEW OR NO CLOUDS BELOW 12,000 FEET WITH NO
SIGNIFICANT WEATHER AND/OR OBSTRUCTIONS TO VISIBILITY.


SDZ001>005-009-010-012>017-262200-
NORTHWEST AND NORTH CENTRAL SOUTH DAKOTA

CITY           SKY/WX    TMP DP  RH WIND       PRES   REMARKS
BUFFALO          N/A     44  26  49 VRB6      29.69F
FAITH            N/A     47  28  47 N14G23    29.74F
MOBRIDGE       CLOUDY    45  26  47 N12       29.73F
$$

SDZ012>016-024>037-041>051-057-063-072>074-262200-
SOUTHWEST AND SOUTH CENTRAL SOUTH DAKOTA

CITY           SKY/WX    TMP DP  RH WIND       PRES   REMARKS
RAPID CTY ARPT CLOUDY    37  27  67 N10       29.78S
PIERRE         MOSUNNY   47  28  47 N17       29.73S
CUSTER         CLOUDY    36  32  85 E13       29.68R
ELLSWORTH AFB  CLOUDY    36  27  72 N10       29.77F
PHILIP         MOSUNNY   43  30  60 NW13G21   29.77F
PINE RIDGE     MOSUNNY   45  32  60 N10       29.74F
SPEARFISH      FAIR      32  27  80 CALM      29.76F
WINNER         CLOUDY    45  29  53 NW18      29.74S
$$

SDZ004>011-016>023-039-040-262200-
NORTHEAST SOUTH DAKOTA

CITY           SKY/WX    TMP DP  RH WIND       PRES   REMARKS
ABERDEEN       LGT SNOW  31  26  82 N16       29.76S WCI  20
WATERTOWN      CLOUDY    29  26  89 N20       29.68S WCI  16
BROOKINGS      CLOUDY    32  26  78 N17G26    29.66F WCI  21
SISSETON         N/A     30  28  92 N21       29.71S WCI  17
$$

SDZ017-020-022-023-036>040-048>070-262200-
SOUTHEAST SOUTH DAKOTA

CITY           SKY/WX    TMP DP  RH WIND       PRES   REMARKS
SIOUX FALLS    CLOUDY    38  30  73 NW17      29.67F
HURON          CLOUDY    35  26  69 N18       29.74S WCI  24
CHAMBERLAIN    CLOUDY    44  30  59 NW16      29.74F
MITCHELL       CLOUDY    38  28  67 NW22      29.73F
YANKTON        CLOUDY   N/A N/A N/A NW22G28   29.69F
$$

ABBREVIATIONS USED IN REMARKS
   TC - TEMPERATURE IN CELSIUS
  WCI - WIND CHILL INDEX
   HX - HEAT INDEX
  VSB - VISIBILITY




USA.gov is the U.S. government's official web portal to all federal, state and local government web resources and services.